Stations météo

Publicité
La Rochelle/Ile de Re, France (7316): Température de l'air & dewpoint: 20.05.2019 08:00:00 - 26.05.2019 08:00:00 (CEST)La Rochelle/Ile de Re, France (7316): Vitesse du vent & gusts: 20.05.2019 08:00:00 - 26.05.2019 08:00:00 (CEST)La Rochelle/Ile de Re, France (7316): Direction du vent: 20.05.2019 08:00:00 - 26.05.2019 08:00:00 (CEST)La Rochelle/Ile de Re, France (7316): reduced air pressure: 20.05.2019 08:00:00 - 26.05.2019 08:00:00 (CEST)La Rochelle/Ile de Re, France (7316): visibility: 20.05.2019 08:00:00 - 26.05.2019 08:00:00 (CEST)La Rochelle/Ile de Re, France (7316): Ensoleillement: 20.05.2019 08:00:00 - 26.05.2019 08:00:00 (CEST)La Rochelle/Ile de Re, France (7316): Quantités de précipitations: 20.05.2019 08:00:00 - 26.05.2019 08:00:00 (CEST)
Date & Time tt [°C] td [°C] ff [km/h] ff [knt] fx [km/h] fx [knt] dd ppp [hPa] vv [km] sd [min] rr [mm]
26.05.2019 08:00:00 14,9 12,2 9 5 21 11 NW 1021,5 53 16 0,0
26.05.2019 07:00:00 13,9 12,6 11 6 22 12 NNW 1021,4 37 0 0,0
26.05.2019 06:00:00 13,7 12,4 14 8 27 14 NNW 1021,4 31 0 0,0
26.05.2019 05:00:00 14,3 13,0 18 10 27 14 NW 1021,6 50 0 0,0
26.05.2019 04:00:00 14,2 12,9 19 10 29 16 WNW 1021,6 44 0 0,0
26.05.2019 03:00:00 13,9 12,8 16 8 23 12 NW 1021,8 28 0 0,0
26.05.2019 02:00:00 13,9 12,6 15 8 24 13 NW 1022,0 25 0 0,0
26.05.2019 01:00:00 14,3 12,8 17 9 28 15 NW 1022,5 24 0 0,0
26.05.2019 00:00:00 14,5 12,9 17 9 35 19 NW 1022,7 20 0 0,0
25.05.2019 23:00:00 14,8 12,8 23 13 40 22 NW 1022,4 27 0 0,0
25.05.2019 22:00:00 15,1 12,4 30 16 46 25 WNW 1021,8 34 16 0,0
25.05.2019 21:00:00 15,7 11,9 29 15 41 22 WNW 1021,7 14 54 0,0
25.05.2019 20:00:00 16,4 12,6 30 16 48 26 WNW 1021,4 11 60 0,0
25.05.2019 19:00:00 17,1 11,8 31 17 47 25 WNW 1021,3 14 60 0,0
25.05.2019 18:00:00 17,6 11,4 35 19 48 26 WNW 1021,2 14 58 0,0
25.05.2019 17:00:00 18,1 12,5 33 18 47 25 WNW 1021,5 14 58 0,0
25.05.2019 16:00:00 18,3 11,6 32 17 43 23 WNW 1021,6 18 40 0,0
25.05.2019 15:00:00 18,3 11,8 30 16 41 22 WNW 1022,0 21 50 0,0
25.05.2019 14:00:00 17,6 12,1 19 10 30 16 WNW 1022,1 0,6 60 0,0
25.05.2019 13:00:00 17,3 11,8 18 10 31 17 NNW 1022,4 22 60 0,0
25.05.2019 12:00:00 16,2 12,4 19 10 25 14 NW 1022,4 20 40 0,0
25.05.2019 11:00:00 15,1 11,3 12 7 24 13 NNW 1022,5 26 11 0,0
25.05.2019 10:00:00 14,2 11,5 16 9 27 15 NNW 1022,3 35 41 0,0
25.05.2019 09:00:00 13,9 11,6 17 9 28 15 NNW 1021,7 2,0 3 0,0
25.05.2019 08:00:00 13,2 11,1 17 9 26 14 N 1021,2 33 43 0,0
25.05.2019 07:00:00 12,7 10,9 15 8 27 15 N 1020,8 23 13 0,0
25.05.2019 06:00:00 12,7 10,9 16 9 29 16 N 1020,5 25 0 0,0
25.05.2019 05:00:00 12,9 10,4 18 10 29 16 N 1020,2 33 0 0,0
25.05.2019 04:00:00 13,4 10,2 16 9 29 16 N 1020,5 44 0 0,0
25.05.2019 03:00:00 14,6 10,0 17 9 34 18 N 1020,2 60 0 0,0
25.05.2019 02:00:00 15,3 9,9 23 13 36 19 NNE 1020,0 60 0 0,0
25.05.2019 01:00:00 16,3 10,2 22 12 36 19 N 1020,1 60 0 0,0
25.05.2019 00:00:00 16,2 12,7 16 9 28 15 NNW 1020,0 60 0 0,0
24.05.2019 23:00:00 16,2 13,1 19 10 29 16 NNW 1019,6 55 0 0,0
24.05.2019 22:00:00 16,1 13,6 24 13 35 19 WNW 1018,6 31 0 0,0
24.05.2019 21:00:00 16,8 13,7 27 15 41 22 WNW 1018,1 10 52 0,0
24.05.2019 20:00:00 17,5 13,4 30 16 45 24 WNW 1017,7 13 60 0,0
24.05.2019 19:00:00 18,4 13,3 31 17 46 25 WNW 1017,6 11 60 0,0
24.05.2019 18:00:00 18,4 13,0 33 18 47 26 WNW 1017,9 16 60 0,0
24.05.2019 17:00:00 19,0 13,6 33 18 48 26 WNW 1018,0 21 60 0,0
24.05.2019 16:00:00 19,8 14,6 31 17 42 23 WNW 1018,1 20 55 0,0
24.05.2019 15:00:00 19,6 14,8 21 11 31 17 WNW 1018,1 20 12 0,0
24.05.2019 14:00:00 17,9 15,3 21 11 36 20 WNW 1018,1 8 37 0,8
24.05.2019 13:00:00 20,5 15,9 24 13 34 19 WNW 1018,2 12 60 0,0
24.05.2019 12:00:00 20,8 14,4 16 9 37 20 N 1018,3 12 57 0,0
24.05.2019 11:00:00 19,8 14,8 13 7 24 13 NNE 1018,2 11 60 0,0
24.05.2019 10:00:00 18,3 15,0 10 5 18 10 N 1017,8 11 52 0,0
24.05.2019 09:00:00 16,8 14,1 13 7 20 11 NNW 1017,8 20 26 0,0
24.05.2019 08:00:00 15,2 13,7 11 6 21 11 NW 1017,8 20 0 0,0
24.05.2019 07:00:00 15,0 13,5 14 8 23 12 NW 1017,1 19 4 0,0
24.05.2019 06:00:00 15,1 13,3 15 8 22 12 NW 1016,7 19 0 0,0
24.05.2019 05:00:00 15,4 13,8 11 6 19 10 NW 1016,4 19 0 0,0
24.05.2019 04:00:00 15,5 13,5 13 7 20 11 WNW 1016,8 21 0 0,0
24.05.2019 03:00:00 15,4 13,4 13 7 22 12 WNW 1017,1 21 0 0,0
24.05.2019 02:00:00 15,4 13,8 10 5 15 8 W 1017,2 17 0 0,0
24.05.2019 01:00:00 15,5 14,2 10 5 14 7 WNW 1017,2 13 0 0,0
24.05.2019 00:00:00 16,2 15,2 4 2 14 7 WNW 1017,3 11 0 0,0
23.05.2019 23:00:00 16,2 14,9 8 5 20 11 NW 1017,2 15 0 0,0
23.05.2019 22:00:00 16,4 15,1 16 9 22 12 WNW 1017,0 16 0 0,0
23.05.2019 21:00:00 17,6 14,3 13 7 30 16 W 1016,6 18 0 0,0
23.05.2019 20:00:00 19,9 12,9 12 7 19 10 WSW 1016,5 58 0 0,0
23.05.2019 19:00:00 22,2 10,3 12 7 19 10 W 1016,5 50 19 0,0
23.05.2019 18:00:00 22,2 11,9 10 5 17 9 W 1016,4 59 4 0,0
23.05.2019 17:00:00 23,6 10,6 11 6 18 10 WSW 1016,6 51 48 0,0
23.05.2019 16:00:00 22,1 13,2 14 7 23 12 NNW 1016,8 56 49 0,0
23.05.2019 15:00:00 24,2 9,7 16 8 29 15 SW 1017,1 60 60 0,0
23.05.2019 14:00:00 24,1 9,3 13 7 21 11 S 1017,2 60 32 0,0
23.05.2019 13:00:00 23,6 9,6 11 6 21 12 SSE 1017,6 19 44 0,0
23.05.2019 12:00:00 22,9 11,3 8 4 18 10 S 1017,9 37 44 0,0
23.05.2019 11:00:00 22,4 12,1 11 6 25 13 S 1017,9 46 58 0,0
23.05.2019 10:00:00 21,2 10,4 12 7 22 12 SE 1017,9 18 60 0,0
23.05.2019 09:00:00 18,7 10,3 15 8 24 13 ESE 1017,8 40 60 0,0
23.05.2019 08:00:00 15,8 9,9 14 8 23 12 ESE 1017,6 43 56 0,0
23.05.2019 07:00:00 11,6 9,3 15 8 19 11 ESE 1017,5 27 6 0,0
23.05.2019 06:00:00 11,1 9,7 14 8 18 10 E 1017,6 17 0 0,0
23.05.2019 05:00:00 11,3 9,7 13 7 15 8 E 1017,7 19 0 0,0
23.05.2019 04:00:00 12,3 10,2 13 7 18 10 E 1017,8 18 0 0,0
23.05.2019 03:00:00 13,4 10,7 10 5 18 10 E 1018,1 21 0 0,0
23.05.2019 02:00:00 13,9 11,1 13 7 17 9 NE 1018,5 20 0 0,0
23.05.2019 01:00:00 14,7 11,7 9 5 11 6 NNE 1018,8 26 0 0,0
23.05.2019 00:00:00 15,5 12,1 7 4 10 5 N 1019,0 35 0 0,0
22.05.2019 23:00:00 16,1 11,7 6 3 14 7 N 1019,0 45 0 0,0
22.05.2019 22:00:00 16,0 12,0 9 5 16 9 NNW 1019,0 41 6 0,0
22.05.2019 21:00:00 17,1 13,4 11 6 22 12 NNW 1018,8 20 60 0,0
22.05.2019 20:00:00 18,8 12,1 13 7 23 13 NW 1018,9 22 60 0,0
22.05.2019 19:00:00 19,2 13,4 16 9 25 14 NW 1018,8 17 60 0,0
22.05.2019 18:00:00 20,3 14,0 18 10 25 13 NW 1019,2 19 60 0,0
22.05.2019 17:00:00 20,7 13,4 18 10 23 13 NW 1019,4 20 60 0,0
22.05.2019 16:00:00 22,5 12,4 16 9 22 12 NW 1019,8 21 60 0,0
22.05.2019 15:00:00 22,4 13,2 10 6 23 13 NW 1020,1 20 57 0,0
22.05.2019 14:00:00 21,9 11,6 13 7 25 13 W 1020,4 21 53 0,0
22.05.2019 13:00:00 22,2 10,7 9 5 26 14 S 1020,6 20 60 0,0
22.05.2019 12:00:00 21,2 11,2 11 6 25 13 SE 1020,8 48 60 0,0
22.05.2019 11:00:00 20,1 12,1 15 8 24 13 SE 1020,5 14 60 0,0
22.05.2019 10:00:00 18,6 11,9 16 8 23 13 SE 1020,4 13 60 0,0
22.05.2019 09:00:00 16,1 12,8 8 5 15 8 SE 1020,4 11 60 0,0
22.05.2019 08:00:00 12,9 12,4 4 2 9 5 E 1020,2 8 53 0,2
22.05.2019 07:00:00 10,9 10,4 5 3 11 6 ESE 1019,8 3,1 10 0,0
22.05.2019 06:00:00 10,8 10,2 9 5 11 6 NE 1019,8 2,8 0 0,0
22.05.2019 05:00:00 11,4 10,6 5 3 9 5 NE 1019,9 6 0 0,0
22.05.2019 04:00:00 11,6 10,5 8 4 10 5 N 1019,9 9 0 0,0
22.05.2019 03:00:00 12,4 11,1 4 2 11 6 NE 1019,8 10 0 0,0
22.05.2019 02:00:00 13,1 12,2 8 4 12 7 NNW 1020,0 9 0 0,0
22.05.2019 01:00:00 13,4 12,1 4 2 10 5 NW 1020,0 14 0 0,0
22.05.2019 00:00:00 13,6 12,2 10 5 21 12 N 1020,2 16 0 0,0
21.05.2019 23:00:00 14,6 12,8 16 8 27 14 WNW 1020,2 18 0 0,0
21.05.2019 22:00:00 15,0 11,9 19 11 27 15 WNW 1019,7 22 0 0,0
21.05.2019 21:00:00 15,4 12,5 15 8 26 14 NW 1019,2 14 0 0,0
21.05.2019 20:00:00 15,9 12,8 21 11 30 16 WNW 1019,1 16 0 0,0
21.05.2019 19:00:00 16,5 12,3 19 11 32 17 WNW 1019,1 20 31 0,0
21.05.2019 18:00:00 17,0 13,5 21 11 42 23 NW 1019,2 17 38 0,0
21.05.2019 17:00:00 18,2 13,3 26 14 37 20 NW 1018,9 17 38 0,0
21.05.2019 16:00:00 17,7 12,6 22 12 31 17 WNW 1019,2 19 38 0,0
21.05.2019 15:00:00 19,0 13,4 17 9 27 14 NW 1018,8 24 48 0,0
21.05.2019 14:00:00 19,4 13,3 12 6 23 12 NW 1018,8 20 53 0,0
21.05.2019 13:00:00 18,7 13,3 11 6 21 12 NW 1018,9 8 43 0,0
21.05.2019 12:00:00 17,6 13,3 14 8 22 12 NW 1018,9 18 60 0,0
21.05.2019 11:00:00 16,2 12,6 10 5 19 10 NNW 1018,8 20 60 0,0
21.05.2019 10:00:00 16,5 12,6 4 2 14 7 N 1018,5 19 60 0,0
21.05.2019 09:00:00 14,8 12,5 9 5 15 8 NNE 1018,1 16 60 0,0
21.05.2019 08:00:00 11,9 11,3 4 2 12 7 N 1018,0 9 13 0,0
21.05.2019 07:00:00 10,8 10,0 9 5 18 10 N 1017,5 10 9 0,0
21.05.2019 06:00:00 11,4 10,5 9 5 16 9 N 1017,1 13 0 0,0
21.05.2019 05:00:00 12,0 11,1 10 5 17 9 NNW 1016,8 18 0 0,0
21.05.2019 04:00:00 12,1 11,2 11 6 16 9 NNW 1016,6 20 0 0,0
21.05.2019 03:00:00 12,0 10,9 10 6 17 9 NW 1016,6 18 0 0,0
21.05.2019 02:00:00 12,5 11,1 13 7 20 11 NW 1016,8 23 0 0,0
21.05.2019 01:00:00 13,0 11,2 12 6 29 15 NNW 1017,0 28 0 0,0
21.05.2019 00:00:00 13,7 11,9 19 11 34 18 NW 1016,9 29 0 0,0
20.05.2019 23:00:00 13,5 11,7 20 11 32 17 WNW 1016,6 26 0 0,0
20.05.2019 22:00:00 13,6 11,5 22 12 30 16 WNW 1016,0 26 5 0,0
20.05.2019 21:00:00 13,7 11,4 23 13 33 18 WNW 1015,7 28 0 0,0
20.05.2019 20:00:00 14,2 11,4 23 12 37 20 WNW 1015,4 24 0 0,0
20.05.2019 19:00:00 14,3 11,3 26 14 42 23 WNW 1015,2 23 9 0,0
20.05.2019 18:00:00 15,8 11,4 30 16 48 26 WNW 1014,8 12 60 0,0
20.05.2019 17:00:00 15,9 11,3 30 16 41 22 WNW 1014,6 13 60 0,0
20.05.2019 16:00:00 16,4 12,4 27 14 37 20 NW 1014,7 14 60 0,0
20.05.2019 15:00:00 16,6 12,1 25 14 37 20 NW 1014,6 15 56 0,0
20.05.2019 14:00:00 16,0 11,8 23 13 35 19 NW 1014,6 15 50 0,0
20.05.2019 13:00:00 16,2 12,9 22 12 32 17 NW 1014,6 16 42 0,0
20.05.2019 12:00:00 15,7 11,5 19 11 30 16 WNW 1014,5 16 53 0,0
20.05.2019 11:00:00 14,9 12,0 11 6 19 11 WNW 1014,6 17 25 0,0
20.05.2019 10:00:00 13,7 10,7 8 4 19 10 NNW 1014,5 18 47 0,0
20.05.2019 09:00:00 13,3 10,8 12 6 17 9 NNW 1013,8 11 60 0,0
20.05.2019 08:00:00 12,3 11,2 10 5 15 8 N 1013,0 10 60 0,0

tt = Température de l'air
td = dewpoint
ff = Vitesse du vent
fx = gusts
dd = Direction du vent
ppp = reduced air pressure
vv = visibility
sd = Ensoleillement
rr = Quantités de précipitations

stations d'obs. à proximité